Hourly Data Report for March 09, 2012

All times are specified in Local Standard Time (LST). Add 1 hour to adjust for Daylight Saving Time where and when it is observed.

Metadata including Station Name, Province, Latitude, Longitude, Elevation, Climate ID, WMO ID, TC ID
KAMLOOPS A
BRITISH COLUMBIA
Latitude: 50°42'08.000" N Longitude: 120°26'31.000" W Elevation: 345.30 m
Climate ID: 1163780 WMO ID: 71887 TC ID: YKA
Hourly Data Report for March 9, 2012
Temp Definition
°C

Dew Point Temp Definition
°C

Rel Hum Definition
%

Wind Dir Definition
10's deg
Wind Spd Definition
km/h

Visibility Definition
km

Stn Press Definition
kPa

Hmdx Definition

Wind Chill Definition

Weather Definition

TIME
00:00 4.8 -5.7 46 10 17 64.4 97.74 Mostly Cloudy
01:00 5.0 -5.5 47 9 17 64.4 97.73 Mostly Cloudy
02:00 4.0 -5.4 50 9 11 64.4 97.71 Mostly Cloudy
03:00 4.0 -5.3 51 8 20 64.4 97.60 Mostly Cloudy
04:00 4.3 -5.4 49 8 22 64.4 97.54 Mostly Cloudy
05:00 4.4 -4.8 51 10 33 64.4 97.49 Mainly Clear
06:00 3.8 -4.8 53 8 26 64.4 97.47 Mostly Cloudy
07:00 3.1 -5.2 54 7 20 64.4 97.46 Mostly Cloudy
08:00 5.7 -4.0 50 12 37 64.4 97.45 Mostly Cloudy
09:00 7.2 -3.6 46 12 35 64.4 97.39 Mostly Cloudy
10:00 8.7 -2.9 44 9 30 64.4 97.28 Mostly Cloudy
11:00 14.2 -0.9 35 17 32 64.4 97.18 Mostly Cloudy
12:00 14.9 -1.2 33 21 32 64.4 97.12 Mostly Cloudy
13:00 15.7 -0.9 32 16 6 64.4 97.05 Mostly Cloudy
14:00 16.5 -1.4 29 25 22 64.4 96.96 Mostly Cloudy
15:00 15.3 -2.2 30 25 28 64.4 96.94 Mostly Cloudy
16:00 15.1 -1.4 32 16 17 64.4 96.96 Mostly Cloudy
17:00 14.3 -0.9 35 14 9 64.4 96.93 Mostly Cloudy
18:00 12.4 -1.7 37 15 17 64.4 96.93 Mostly Cloudy
19:00 10.6 -1.8 42 18 28 64.4 96.92 Mainly Clear
20:00 10.1 -1.9 43 1 6 64.4 96.97 Mainly Clear
21:00 9.7 -1.3 46 9 9 64.4 96.97 Mostly Cloudy
22:00 10.2 -1.1 45   0 64.4 96.93 Mostly Cloudy
23:00 10.0 -1.1 46 3 11 64.4 96.89 Mostly Cloudy

Notes on Data Quality.

Legend
  • E = Estimated
  • M = Missing
  • NA = Not Available
  • ‡ = Partner data that is not subject to review by the National Climate Archives